This demonstration page uses our WeatherBlox Daily Observations layout. Learn more.

Left ArrowRight Arrow

44.8408, -93.29828

Hourly Observations for September 11, 2020

Temp ( °F °C ) Dew Point ( °F °C ) Humidity (%) Winds ( mph kmh ) Pressure ( in mb ) Visibility ( mi km ) Precip ( " mm )
12:53 am 00:53 Clear 49 9.4 43 6.1 80 80 Calm 30.39 1029 10 16 0.00 0.00
1:53 am 01:53 Clear 45 7.2 43 6.1 93 93 Calm 30.39 1029 10 16 0.00 0.00
2:53 am 02:53 Clear 44 6.7 42 5.6 93 93 Calm 30.39 1029 10 16 0.00 0.00
3:53 am 03:53 Clear 45 7.2 42 5.6 90 90 ENE 3 6 30.38 1029 10 16 0.00 0.00
4:53 am 04:53 Clear 45 7.2 43 6.1 93 93 Calm 30.38 1029 7 11 0.00 0.00
5:53 am 05:53 Mostly Clear 45 7.2 43 6.1 93 93 E 6 9 30.37 1029 7 11 0.00 0.00
6:53 am 06:53 Mostly Cloudy with Patchy Fog 46 7.8 44 6.7 93 93 ENE 5 7 30.36 1028 7 11 0.00 0.00
7:53 am 07:53 Mostly Cloudy 48 8.9 45 7.2 89 89 E 6 9 30.37 1028 8 13 0.00 0.00
8:53 am 08:53 Mostly Cloudy 50 10 46 7.8 86 86 ESE 8 13 30.35 1028 10 16 0.00 0.00
9:53 am 09:53 Cloudy 52 11.1 47 8.3 83 83 ESE 12 19 30.33 1027 10 16 0.00 0.00
10:53 am 10:53 Mostly Cloudy 54 12.2 47 8.3 77 77 ESE 10 17 30.32 1027 10 16 0.00 0.00
11:53 am 11:53 Mostly Cloudy 58 14.4 48 8.9 70 70 SE 13 20 30.29 1026 10 16 0.00 0.00
11:58 am 11:58 Mostly Cloudy 58 14.4 48 8.9 70 70 ESE 10 17 30.28 1025 10 16 0.00 0.00
12:53 pm 12:53 Cloudy 59 15 48 8.9 67 67 ESE 13 20 30.27 1025 10 16 0.00 0.00
1:11 pm 13:11 Cloudy 59 15 48 8.9 67 67 ESE 10 17 30.25 1025 10 16 0.00 0.00
1:53 pm 13:53 Cloudy 58 14.4 48 8.9 70 70 SE 9 15 30.25 1024 10 16 0.00 0.00
2:53 pm 14:53 Cloudy 59 15 48 8.9 67 67 ESE 13 20 30.21 1023 10 16 0.00 0.00
3:20 pm 15:20 Cloudy 58 14.4 49 9.4 72 72 ESE 14 22 30.19 1022 10 16 0.00 0.00
3:53 pm 15:53 Cloudy 58 14.4 49 9.4 72 72 ESE 14 22 30.18 1022 10 16 0.00 0.00
4:53 pm 16:53 Cloudy 58 14.4 49 9.4 72 72 ESE 10 17 30.16 1022 10 16 0.00 0.00
5:53 pm 17:53 Cloudy with Light Rain 55 12.8 52 11.1 90 90 ESE 12 19 30.14 1021 10 16 0.00 0.00
6:53 pm 18:53 Cloudy with Light Rain 56 13.3 53 11.7 90 90 ESE 14 22 30.13 1020 6 10 0.00 0.00
7:29 pm 19:29 Cloudy with Light Rain 55 12.8 53 11.7 93 93 ESE 9 15 30.11 1020 10 16 0.00 0.00
7:53 pm 19:53 Cloudy with Light Rain 55 12.8 53 11.7 93 93 E 9 15 30.11 1020 10 16 0.00 0.00
8:53 pm 20:53 Cloudy with Light Rain 54 12.2 53 11.7 97 97 E 13 20 30.08 1019 10 16 0.01 0.25
9:00 pm 21:00 Cloudy 55 12.8 53 11.7 93 93 E 14 22 30.07 1018 10 16 0.00 0.00
9:02 pm 21:02 Cloudy 55 12.8 53 11.7 93 93 E 12 19 30.07 1018 10 16 0.00 0.00
9:46 pm 21:46 Cloudy 55 12.8 53 11.7 93 93 E 8 13 30.07 1018 10 16 0.00 0.00
9:53 pm 21:53 Cloudy with Mist and Fog 54 12.2 53 11.7 97 97 E 9 15 30.07 1018 5 8 0.00 0.00
10:12 pm 22:12 Cloudy with Mist and Fog 54 12.2 54 12.2 100 100 ESE 8 13 30.06 1018 3 4 0.00 0.00
10:51 pm 22:51 Cloudy with Light Rain 54 12 54 12 100 100 E 5 7 30.05 1018 2 3 0.01 0.25
10:53 pm 22:53 Cloudy with Light Rain 54 12.2 54 12.2 100 100 E 5 7 30.06 1018 2 3 0.01 0.25
11:35 pm 23:35 Cloudy with Light Rain 54 12.2 54 12.2 100 100 E 6 9 30.03 1017 3 4 0.03 0.76
11:53 pm 23:53 Cloudy with Light Rain 54 12.2 54 12.2 100 100 E 6 9 30.03 1017 3 5 0.04 1.02

Powered by AerisWeather